Hourly Data Report for July 01, 2021

RANKIN INLET A
NUNAVUT
Current Station Operator: NAVCAN

62°48'38.000" N
92°06'53.000" W
32.30 m
2303405
71083
YRT

Download Data

Hourly Data (July 2021)
Hourly Data Report for July 1, 2021
TIME
LST
Temp Definition
°C
Dew Point Definition
°C
Rel Hum Definition
%
Precip. Amount Definition
mm

Wind Dir Definition
10's deg

Wind Spd Definition
km/h
Visibility Definition
km
Stn Press Definition
kPa
Hmdx Definition


Wind Chill Definition


Weather Definition


00:00 3.2 1.5 88   13 20 24.1 100.95     Cloudy
01:00 3.2 2.3 94   14 21 9.7 100.89     Rain
02:00 3.1 2.4 96   12 19 12.9 100.76     Rain
03:00 3.5 2.8 96   15 23 16.1 100.65     Cloudy
04:00 4.2 2.9 91   12 22 16.1 100.53     LegendNANA
05:00 4.3 2.7 89   12 20 16.1 100.43     LegendNANA
06:00 5.1 2.9 86   11 18 16.1 100.38     Mostly Cloudy
07:00 5.3 2.9 84   11 27 16.1 100.27     LegendNANA
08:00 6.6 3.6 81   11 20 12.9 100.25     LegendNANA
09:00 7.9 4.2 78   13 19 12.9 100.17     Mostly Cloudy
10:00 7.1 4.1 81   10 16 12.9 100.16     LegendNANA
11:00 7.7 4.4 80   9 16 12.9 100.15     LegendNANA
12:00 8.9 4.6 74   10 13 9.7 100.20     Haze
13:00 10.2 5.1 70   14 10 12.9 100.17     LegendNANA
14:00 14.5 7.9 65   36 42 12.9 100.19     LegendNANA
15:00 12.7 7.2 69   1 41 12.9 100.32     Mainly Clear
16:00 12.6 7.9 73   1 40 12.9 100.33     LegendNANA
17:00 11.6 7.9 78   1 39 24.1 100.49     LegendNANA
18:00 10.6 7.2 80   1 47 24.1 100.63     Mostly Cloudy
19:00 9.8 6.7 81   1 32 24.1 100.71     LegendNANA
20:00 9.7 6.5 81   1 37 24.1 100.74     LegendNANA
21:00 8.4 6.0 85   2 36 24.1 100.79     Mostly Cloudy
22:00 7.7 5.4 86   2 30 24.1 100.82     LegendNANA
23:00 7.1 5.5 89   3 33 24.1 100.89     LegendNANA

Notes on Data Quality.

Legend

  • E = Estimated
  • M = Missing
  • NA = Not Available*
  • [empty] = Indicates an unobserved value
Date modified: